Naples, Italy

12:52 PM CEST on June 27, 2017 (GMT +0200)
Capodichino Mil

Weather History for LIRN - April, 2013

Change the Weather History Date:

Friday, April 12, 2013

  Actual Average Record
Temperature  
Mean Temperature 60 °F -  
Max Temperature 68 °F 68 °F 75 °F (2007)
Min Temperature 53 °F 50 °F 42 °F (2006)
Degree Days  
Heating Degree Days 4    
Growing Degree Days 10 (Base 50)    
Moisture  
Dew Point 51 °F    
Average Humidity 72    
Maximum Humidity 88    
Minimum Humidity 52    
Precipitation  
Precipitation 0.00 in 0.09 in - ()
Sea Level Pressure  
Sea Level Pressure 30.02 in    
Wind  
Wind Speed 4 mph ()    
Max Wind Speed 13 mph    
Max Gust Speed -    
Visibility 5.4 miles    
Events      
Averages and records for this station are not official NWS values.
T = Trace of Precipitation, MM = Missing Value Source: Averaged Metar Reports

Daily Weather History Graph

Daily Weather History Graph

Search for Another Location

Airport or City:

Trip Planner

Search our weather history database for the weather conditions in past years. The results will help you decide how hot, cold, wet, or windy it might be!

Date:

Astronomy

Apr. 12, 2013 Rise Set
Actual Time 6:28 AM CEST 7:39 PM CEST
Civil Twilight 6:00 AM CEST 8:07 PM CEST
Nautical Twilight 5:26 AM CEST 8:41 PM CEST
Astronomical Twilight 4:51 AM CEST 9:16 PM CEST
Moon 7:26 AM CEST (4/12) 9:54 PM CEST (4/12)
Length of Visible Light 14h 07m
Length of Day
13h 10m
Waxing Crescent, 4% of the Moon is Illuminated
Apr 12
Waxing Crescent
Apr 18
First Quarter
Apr 25
Full
May 2
Last Quarter
May 10
New

Hourly Weather History & Observations

Time (CEST) Temp. Dew Point Humidity Pressure Visibility Wind Dir Wind Speed Gust Speed Precip Events Conditions
12:20 AM 57.2 °F 53.6 °F 88% 30.04 in - Calm Calm - N/A   Clear
12:50 AM 57.2 °F 51.8 °F 82% 30.04 in - Variable 2.3 mph - N/A   Clear
1:20 AM 57.2 °F 51.8 °F 82% 30.04 in - NNE 2.3 mph - N/A   Clear
1:50 AM 57.2 °F 51.8 °F 82% 30.04 in 6.2 mi NE 2.3 mph - N/A   Partly Cloudy
2:20 AM 55.4 °F 51.8 °F 88% 30.04 in 5.0 mi Variable 2.3 mph - N/A   Partly Cloudy
2:50 AM 55.4 °F 50.0 °F 82% 30.01 in 5.0 mi Variable 2.3 mph - N/A   Partly Cloudy
3:20 AM 53.6 °F 50.0 °F 88% 30.01 in 5.0 mi NW 3.5 mph - N/A   Partly Cloudy
3:50 AM 55.4 °F 50.0 °F 82% 30.01 in 5.0 mi NNE 2.3 mph - N/A   Partly Cloudy
4:50 AM 53.6 °F 50.0 °F 88% 30.01 in 5.0 mi NE 3.5 mph - N/A   Partly Cloudy
5:20 AM 53.6 °F 48.2 °F 82% 30.01 in 5.0 mi NNW 3.5 mph - N/A   Partly Cloudy
5:50 AM 53.6 °F 50.0 °F 88% 30.01 in 5.0 mi Variable 2.3 mph - N/A   Partly Cloudy
6:20 AM 53.6 °F 50.0 °F 88% 30.01 in 5.0 mi ENE 3.5 mph - N/A   Partly Cloudy
6:50 AM 53.6 °F 48.2 °F 82% 30.01 in 4.3 mi Variable 1.2 mph - N/A   Scattered Clouds
7:20 AM 55.4 °F 50.0 °F 82% 30.01 in 4.3 mi Calm Calm - N/A   Scattered Clouds
7:50 AM 57.2 °F 50.0 °F 77% 30.01 in 4.3 mi ENE 3.5 mph - N/A   Partly Cloudy
8:20 AM 59.0 °F 51.8 °F 77% 30.01 in 4.3 mi Variable 1.2 mph - N/A   Partly Cloudy
8:50 AM 60.8 °F 51.8 °F 72% 30.04 in 5.0 mi Variable 1.2 mph - N/A   Partly Cloudy
9:20 AM 60.8 °F 51.8 °F 72% 30.04 in 5.0 mi South 4.6 mph - N/A   Partly Cloudy
9:50 AM 62.6 °F 53.6 °F 72% 30.04 in 6.2 mi SSW 5.8 mph - N/A   Partly Cloudy
10:20 AM 62.6 °F 53.6 °F 72% 30.04 in 6.2 mi SSW 5.8 mph - N/A   Scattered Clouds
10:50 AM 62.6 °F 51.8 °F 68% 30.04 in 6.2 mi SSW 5.8 mph - N/A   Scattered Clouds
11:20 AM 62.6 °F 53.6 °F 72% 30.04 in 6.2 mi SW 10.4 mph - N/A   Scattered Clouds
11:50 AM 62.6 °F 53.6 °F 72% 30.04 in 6.2 mi SSW 11.5 mph - N/A   Scattered Clouds
12:20 PM 62.6 °F 53.6 °F 72% 30.04 in 6.2 mi SSW 10.4 mph - N/A   Scattered Clouds
12:50 PM 64.4 °F 51.8 °F 64% 30.04 in 6.2 mi South 12.7 mph - N/A   Partly Cloudy
1:20 PM 64.4 °F 51.8 °F 64% 30.04 in 6.2 mi SSW 12.7 mph - N/A   Partly Cloudy
1:50 PM 64.4 °F 53.6 °F 68% 30.01 in - SSW 11.5 mph - N/A   Clear
2:20 PM 66.2 °F 51.8 °F 60% 30.01 in - SSW 10.4 mph - N/A   Clear
2:50 PM 66.2 °F 51.8 °F 60% 30.01 in - SSW 10.4 mph - N/A   Clear
3:20 PM 68.0 °F 51.8 °F 56% 29.98 in - SSW 10.4 mph - N/A   Clear
3:50 PM 68.0 °F 50.0 °F 52% 30.01 in - SW 10.4 mph - N/A   Clear
4:20 PM 66.2 °F 48.2 °F 52% 30.01 in - SSW 11.5 mph - N/A   Clear
4:50 PM 66.2 °F 50.0 °F 56% 30.01 in - SSW 10.4 mph - N/A   Clear
5:20 PM 66.2 °F 50.0 °F 56% 30.01 in - SSW 9.2 mph - N/A   Clear
5:50 PM 64.4 °F 50.0 °F 59% 30.01 in - South 8.1 mph - N/A   Clear
6:20 PM 64.4 °F 50.0 °F 59% 29.98 in - SSW 6.9 mph - N/A   Clear
6:50 PM 62.6 °F 50.0 °F 63% 30.01 in - SSW 8.1 mph - N/A   Clear
7:20 PM 62.6 °F 51.8 °F 68% 30.01 in - SSW 6.9 mph - N/A   Clear
7:50 PM 62.6 °F 50.0 °F 63% 30.01 in - SSW 3.5 mph - N/A   Clear
8:20 PM 62.6 °F 51.8 °F 68% 30.01 in - Variable 2.3 mph - N/A   Clear
8:50 PM 62.6 °F 51.8 °F 68% 30.01 in - South 3.5 mph - N/A   Clear
9:20 PM 60.8 °F 51.8 °F 72% 30.04 in - Variable 2.3 mph - N/A   Clear
9:50 PM 60.8 °F 51.8 °F 72% 30.04 in - SSW 3.5 mph - N/A   Clear
10:20 PM 60.8 °F 51.8 °F 72% 30.04 in - SSW 4.6 mph - N/A   Clear
10:50 PM 60.8 °F 51.8 °F 72% 30.04 in - SSW 4.6 mph - N/A   Clear
11:20 PM 60.8 °F 51.8 °F 72% 30.04 in 6.2 mi SSW 3.5 mph - N/A   Scattered Clouds
11:50 PM 62.6 °F 53.6 °F 72% 30.04 in 6.2 mi SSW 4.6 mph - N/A   Scattered Clouds